Location: St. Louis
(38.6270°N, 90.1994°W)
Time: 08:24:35
(UTC-06:00)

SR - Pass Details

Date: 29 November 2021
Orbit: 582 x 872 km, 66.7° (Epoch: 21 January)

Event Time Altitude Azimuth Distance (km) Brightness Sun altitude
Rises 07:57:32 0° 351° (N) 2,816 ? 9.0°
Reaches altitude 10° 08:01:18 10° 25° (NNE) 1,937 ? 9.6°
Maximum altitude 08:02:47 12° 46° (NE) 1,850 ? 9.8°
Drops below altitude 10° 08:04:18 10° 66° (ENE) 1,966 ? 10.0°
Sets 08:08:12 0° 100° (E) 2,925 ? 10.6°
